Hourly Weather Karatau

Today, 28 September, Monday

Time Temperature Precipitation Wind Pressure Humidity
00:00 +11°C° 0 mm 6 mps 758 mmHg 37%
01:00 +10°C° 0 mm 6 mps 758 mmHg 38%
02:00 +10°C° 0 mm 6 mps 758 mmHg 39%
03:00 +9°C° 0 mm 6 mps 758 mmHg 40%
04:00 +9°C° 0 mm 7 mps 759 mmHg 41%
05:00 +9°C° 0 mm 7 mps 759 mmHg 42%
06:00 +9°C° 0 mm 7 mps 759 mmHg 42%
07:00 +9°C° 0 mm 7 mps 760 mmHg 43%
08:00 +11°C° 0 mm 8 mps 760 mmHg 37%
09:00 +15°C° 0 mm 8 mps 760 mmHg 30%
10:00 +17°C° 0 mm 9 mps 760 mmHg 22%
11:00 +18°C° 0 mm 9 mps 760 mmHg 21%
12:00 +19°C° 0 mm 9 mps 760 mmHg 19%
13:00 +21°C° 0 mm 8 mps 760 mmHg 18%
14:00 +21°C° 0 mm 8 mps 760 mmHg 18%
15:00 +21°C° 0 mm 8 mps 760 mmHg 18%
16:00 +21°C° 0 mm 8 mps 760 mmHg 18%
17:00 +18°C° 0 mm 7 mps 760 mmHg 21%
18:00 +16°C° 0 mm 6 mps 760 mmHg 24%
19:00 +14°C° 0 mm 5 mps 760 mmHg 27%
20:00 +13°C° 0 mm 5 mps 760 mmHg 30%
21:00 +12°C° 0 mm 5 mps 760 mmHg 33%
22:00 +10°C° 0 mm 5 mps 761 mmHg 37%
23:00 +10°C° 0 mm 5 mps 761 mmHg 37%

Tomorrow, 29 September, Tuesday

Time Temperature Precipitation Wind Pressure Humidity
00:00 +9°C° 0 mm 5 mps 760 mmHg 37%
01:00 +9°C° 0 mm 5 mps 760 mmHg 37%
02:00 +8°C° 0 mm 5 mps 760 mmHg 38%
03:00 +8°C° 0 mm 5 mps 760 mmHg 38%
04:00 +8°C° 0 mm 4 mps 760 mmHg 39%
05:00 +8°C° 0 mm 5 mps 761 mmHg 39%
06:00 +9°C° 0 mm 5 mps 761 mmHg 38%
07:00 +9°C° 0 mm 5 mps 761 mmHg 38%
08:00 +13°C° 0 mm 5 mps 761 mmHg 32%
09:00 +15°C° 0 mm 6 mps 761 mmHg 27%
10:00 +18°C° 0 mm 7 mps 762 mmHg 22%
11:00 +20°C° 0 mm 7 mps 761 mmHg 20%
12:00 +21°C° 0 mm 7 mps 761 mmHg 19%
13:00 +22°C° 0 mm 7 mps 760 mmHg 18%
14:00 +21°C° 0 mm 7 mps 760 mmHg 17%
15:00 +21°C° 0 mm 7 mps 759 mmHg 17%
16:00 +21°C° 0 mm 7 mps 759 mmHg 17%
17:00 +19°C° 0 mm 6 mps 759 mmHg 19%
18:00 +15°C° 0 mm 6 mps 759 mmHg 22%
19:00 +13°C° 0 mm 5 mps 759 mmHg 25%
20:00 +12°C° 0 mm 4 mps 759 mmHg 28%
21:00 +12°C° 0 mm 4 mps 759 mmHg 30%
22:00 +11°C° 0 mm 4 mps 758 mmHg 33%
23:00 +10°C° 0 mm 4 mps 758 mmHg 34%

Day after tomorrow, 30 September, Wednesday

Time Temperature Precipitation Wind Pressure Humidity
00:00 +10°C° 0 mm 4 mps 758 mmHg 36%
01:00 +8°C° 0 mm 4 mps 757 mmHg 37%
02:00 +8°C° 0 mm 4 mps 757 mmHg 38%
03:00 +7°C° 0 mm 4 mps 757 mmHg 39%
04:00 +7°C° 0 mm 5 mps 757 mmHg 40%
05:00 +7°C° 0 mm 4 mps 757 mmHg 40%
06:00 +7°C° 0 mm 4 mps 757 mmHg 39%
07:00 +7°C° 0 mm 4 mps 757 mmHg 39%
08:00 +11°C° 0 mm 4 mps 757 mmHg 33%
09:00 +14°C° 0 mm 4 mps 757 mmHg 28%
10:00 +18°C° 0 mm 4 mps 757 mmHg 22%
11:00 +19°C° 0 mm 4 mps 756 mmHg 20%
12:00 +21°C° 0 mm 3 mps 756 mmHg 18%
13:00 +22°C° 0 mm 3 mps 756 mmHg 16%
14:00 +22°C° 0 mm 4 mps 755 mmHg 18%
15:00 +22°C° 0 mm 4 mps 755 mmHg 20%
16:00 +22°C° 0 mm 5 mps 755 mmHg 22%
17:00 +20°C° 0 mm 5 mps 755 mmHg 27%
18:00 +16°C° 0 mm 5 mps 755 mmHg 33%
19:00 +14°C° 0 mm 5 mps 755 mmHg 39%
20:00 +13°C° 0 mm 5 mps 755 mmHg 40%
21:00 +13°C° 0 mm 4 mps 755 mmHg 42%
22:00 +12°C° 0 mm 4 mps 755 mmHg 44%
23:00 +12°C° 0 mm 4 mps 755 mmHg 49%

1 October, Thursday

Time Temperature Precipitation Wind Pressure Humidity
00:00 +11°C° 0 mm 4 mps 755 mmHg 54%
01:00 +11°C° 0 mm 4 mps 755 mmHg 59%
02:00 +11°C° 0 mm 4 mps 755 mmHg 61%
03:00 +10°C° 0 mm 3 mps 755 mmHg 63%
04:00 +10°C° 0 mm 3 mps 755 mmHg 65%
05:00 +11°C° 0 mm 3 mps 755 mmHg 60%
06:00 +11°C° 0 mm 4 mps 755 mmHg 55%
07:00 +12°C° 0 mm 4 mps 755 mmHg 49%
08:00 +14°C° 0 mm 4 mps 756 mmHg 44%
09:00 +17°C° 0 mm 5 mps 756 mmHg 39%
10:00 +20°C° 0 mm 5 mps 756 mmHg 34%
11:00 +21°C° 0 mm 4 mps 756 mmHg 32%
12:00 +21°C° 0 mm 4 mps 755 mmHg 30%
13:00 +22°C° 0 mm 3 mps 755 mmHg 28%
14:00 +22°C° 0 mm 3 mps 755 mmHg 27%
15:00 +22°C° 0 mm 3 mps 755 mmHg 27%
16:00 +21°C° 0 mm 3 mps 755 mmHg 27%
17:00 +20°C° 0 mm 3 mps 755 mmHg 29%
18:00 +18°C° 0 mm 4 mps 755 mmHg 32%
19:00 +15°C° 0 mm 4 mps 755 mmHg 34%
20:00 +14°C° 0 mm 4 mps 755 mmHg 36%
21:00 +13°C° 0 mm 4 mps 755 mmHg 38%
22:00 +12°C° 0 mm 4 mps 755 mmHg 40%
23:00 +12°C° 0 mm 4 mps 755 mmHg 41%

2 October, Friday

Time Temperature Precipitation Wind Pressure Humidity
00:00 +11°C° 0 mm 4 mps 755 mmHg 42%
01:00 +11°C° 0 mm 3 mps 755 mmHg 44%
02:00 +11°C° 0 mm 3 mps 755 mmHg 45%
03:00 +10°C° 0 mm 3 mps 755 mmHg 47%
04:00 +10°C° 0 mm 3 mps 755 mmHg 48%
05:00 +11°C° 0 mm 3 mps 756 mmHg 45%
06:00 +13°C° 0 mm 2 mps 756 mmHg 41%
07:00 +13°C° 0 mm 2 mps 756 mmHg 38%
08:00 +16°C° 0 mm 2 mps 756 mmHg 34%
09:00 +18°C° 0 mm 2 mps 756 mmHg 29%
10:00 +21°C° 0 mm 2 mps 756 mmHg 24%
11:00 +23°C° 0 mm 2 mps 756 mmHg 23%
12:00 +24°C° 0 mm 2 mps 756 mmHg 21%
13:00 +25°C° 0 mm 2 mps 756 mmHg 20%
14:00 +25°C° 0 mm 2 mps 756 mmHg 19%
15:00 +25°C° 0 mm 3 mps 756 mmHg 18%
16:00 +25°C° 0 mm 3 mps 756 mmHg 17%
17:00 +22°C° 0 mm 3 mps 756 mmHg 20%
18:00 +20°C° 0 mm 4 mps 756 mmHg 23%
19:00 +18°C° 0 mm 4 mps 756 mmHg 26%
20:00 +17°C° 0 mm 4 mps 756 mmHg 28%
21:00 +15°C° 0 mm 4 mps 756 mmHg 29%
22:00 +14°C° 0 mm 4 mps 756 mmHg 31%
23:00 +14°C° 0 mm 4 mps 757 mmHg 30%

3 October, Saturday

Time Temperature Precipitation Wind Pressure Humidity
00:00 +13°C° 0 mm 4 mps 757 mmHg 30%
01:00 +13°C° 0 mm 4 mps 757 mmHg 29%
02:00 +12°C° 0 mm 4 mps 757 mmHg 29%
03:00 +12°C° 0 mm 4 mps 757 mmHg 28%
04:00 +12°C° 0 mm 3 mps 757 mmHg 27%
05:00 +12°C° 0 mm 3 mps 757 mmHg 26%
06:00 +12°C° 0 mm 3 mps 758 mmHg 25%
07:00 +13°C° 0 mm 3 mps 758 mmHg 24%
08:00 +15°C° 0 mm 4 mps 758 mmHg 20%
09:00 +19°C° 0 mm 4 mps 758 mmHg 17%
10:00 +21°C° 0 mm 4 mps 758 mmHg 14%
11:00 +22°C° 0 mm 4 mps 758 mmHg 13%
12:00 +23°C° 0 mm 4 mps 758 mmHg 13%
13:00 +25°C° 0 mm 4 mps 758 mmHg 12%
14:00 +25°C° 0 mm 4 mps 758 mmHg 11%
15:00 +25°C° 0 mm 4 mps 758 mmHg 11%
16:00 +25°C° 0 mm 4 mps 757 mmHg 10%
17:00 +21°C° 0 mm 4 mps 758 mmHg 12%
18:00 +19°C° 0 mm 4 mps 758 mmHg 14%
19:00 +15°C° 0 mm 4 mps 758 mmHg 15%
20:00 +14°C° 0 mm 4 mps 758 mmHg 20%
21:00 +13°C° 0 mm 5 mps 759 mmHg 26%
22:00 +12°C° 0 mm 5 mps 759 mmHg 31%
23:00 +10°C° 0 mm 5 mps 759 mmHg 31%
Show more